| time (UTC) | temp F | wind direction | speed knots | gust knots | rain 1hr in | rain 24hr in | rain mn in | humidity % | barometer mb |
| 20260508200053 | 73 | 248 | 12.2 | 23.5 | 0.00 | 0.00 | 0.00 | 21 | 1008.3 |
| 20260508194605 | 74 | 298 | 13.0 | 20.9 | 0.00 | 0.00 | 0.00 | 22 | 1008.5 |
| 20260508193108 | 73 | 331 | 12.2 | 20.9 | 0.00 | 0.00 | 0.00 | 21 | 1008.7 |
| 20260508191601 | 73 | 288 | 8.7 | 18.2 | 0.00 | 0.00 | 0.00 | 22 | 1008.7 |
| 20260508190108 | 72 | 284 | 12.2 | 18.2 | 0.00 | 0.00 | 0.00 | 23 | 1009.1 |
| 20260508184552 | 72 | 282 | 11.3 | 22.6 | 0.00 | 0.00 | 0.00 | 23 | 1009.3 |
| 20260508183057 | 71 | 246 | 7.8 | 14.8 | 0.00 | 0.00 | 0.00 | 24 | 1009.7 |
| 20260508181602 | 71 | 259 | 7.8 | 13.9 | 0.00 | 0.00 | 0.00 | 27 | 1010.0 |
| 20260508180057 | 69 | 244 | 6.1 | 13.0 | 0.00 | 0.00 | 0.00 | 32 | 1010.0 |
| 20260508174555 | 68 | 262 | 6.1 | 12.2 | 0.00 | 0.00 | 0.00 | 34 | 1010.3 |
| 20260508173055 | 68 | 264 | 7.8 | 12.2 | 0.00 | 0.00 | 0.00 | 35 | 1010.3 |
| 20260508171556 | 67 | 282 | 7.8 | 11.3 | 0.00 | 0.00 | 0.00 | 36 | 1010.5 |
| 20260508170059 | 66 | 287 | 3.5 | 11.3 | 0.00 | 0.00 | 0.00 | 41 | 1010.7 |
| 20260508164604 | 64 | 241 | 6.1 | 12.2 | 0.00 | 0.00 | 0.00 | 47 | 1010.8 |
| 20260508163109 | 63 | 270 | 5.2 | 10.4 | 0.00 | 0.00 | 0.00 | 49 | 1011.0 |
| 20260508161558 | 62 | 250 | 6.1 | 11.3 | 0.00 | 0.00 | 0.00 | 50 | 1011.2 |
| 20260508160055 | 61 | 259 | 6.1 | 9.6 | 0.00 | 0.00 | 0.00 | 52 | 1011.4 |
| 20260508154558 | 59 | 264 | 5.2 | 10.4 | 0.00 | 0.00 | 0.00 | 55 | 1011.5 |
| 20260508153106 | 58 | 254 | 5.2 | 7.8 | 0.00 | 0.00 | 0.00 | 57 | 1011.8 |
| 20260508151556 | 57 | 250 | 2.6 | 6.1 | 0.00 | 0.00 | 0.00 | 61 | 1011.8 |
| 20260508150053 | 54 | 0 | 0.9 | 5.2 | 0.00 | 0.00 | 0.00 | 65 | 1011.8 |
| 20260508144551 | 53 | 209 | 1.7 | 5.2 | 0.00 | 0.00 | 0.00 | 68 | 1011.8 |
| 20260508143111 | 51 | 224 | 2.6 | 5.2 | 0.00 | 0.00 | 0.00 | 71 | 1012.0 |
| 20260508141558 | 50 | 225 | 3.5 | 7.0 | 0.00 | 0.00 | 0.00 | 72 | 1012.1 |
| 20260508140107 | 49 | 220 | 2.6 | 4.3 | 0.00 | 0.00 | 0.00 | 75 | 1012.1 |
| 20260508134553 | 47 | 220 | 1.7 | 7.0 | 0.00 | 0.00 | 0.00 | 78 | 1012.2 |
| 20260508133057 | 44 | 0 | 0.0 | 2.6 | 0.00 | 0.00 | 0.00 | 80 | 1012.1 |
| 20260508131552 | 43 | 0 | 0.0 | 2.6 | 0.00 | 0.00 | 0.00 | 83 | 1012.1 |
| 20260508130052 | 42 | 0 | 0.0 | 3.5 | 0.00 | 0.00 | 0.00 | 83 | 1012.1 |
| 20260508124552 | 41 | 238 | 2.6 | 6.1 | 0.00 | 0.00 | 0.00 | 84 | 1012.1 |
| 20260508123052 | 40 | 0 | 0.0 | 0.0 | 0.00 | 0.00 | 0.00 | 82 | 1011.9 |
| 20260508121550 | 39 | 0 | 0.0 | 0.0 | 0.00 | 0.00 | 0.00 | 84 | 1011.8 |
| 20260508120100 | 39 | 0 | 0.0 | 0.0 | 0.00 | 0.00 | 0.00 | 84 | 1011.9 |
| 20260508114601 | 38 | 0 | 0.0 | 0.0 | 0.00 | 0.00 | 0.00 | 81 | 1012.0 |
| 20260508113101 | 39 | 0 | 0.0 | 0.0 | 0.00 | 0.00 | 0.00 | 80 | 1012.1 |
| 20260508111553 | 40 | 0 | 0.0 | 0.0 | 0.00 | 0.00 | 0.00 | 80 | 1012.1 |
| 20260508110104 | 41 | 0 | 0.0 | 0.0 | 0.00 | 0.00 | 0.00 | 78 | 1012.1 |
| 20260508104552 | 42 | 0 | 0.0 | 0.0 | 0.00 | 0.00 | 0.00 | 77 | 1012.1 |
| 20260508103057 | 44 | 0 | 0.0 | 3.5 | 0.00 | 0.00 | 0.00 | 77 | 1012.0 |
| 20260508101556 | 45 | 345 | 3.5 | 10.4 | 0.00 | 0.00 | 0.00 | 75 | 1012.1 |
| 20260508100126 | 45 | 360 | 7.0 | 10.4 | 0.00 | 0.00 | 0.00 | 76 | 1012.1 |
| 20260508094557 | 46 | 329 | 3.5 | 8.7 | 0.00 | 0.00 | 0.00 | 73 | 1012.2 |
| 20260508093057 | 47 | 325 | 4.3 | 8.7 | 0.00 | 0.00 | 0.00 | 73 | 1012.0 |
| 20260508091608 | 47 | 316 | 3.5 | 7.8 | 0.00 | 0.00 | 0.00 | 72 | 1012.1 |
| 20260508090054 | 48 | 308 | 3.5 | 8.7 | 0.00 | 0.00 | 0.00 | 70 | 1012.1 |
| 20260508084552 | 48 | 313 | 6.1 | 10.4 | 0.00 | 0.00 | 0.00 | 70 | 1012.2 |
| 20260508083055 | 49 | 300 | 5.2 | 12.2 | 0.00 | 0.00 | 0.00 | 69 | 1012.0 |
| 20260508081610 | 49 | 306 | 5.2 | 10.4 | 0.00 | 0.00 | 0.00 | 68 | 1012.0 |
| 20260508080055 | 49 | 309 | 5.2 | 12.2 | 0.00 | 0.00 | 0.00 | 67 | 1012.0 |
| 20260508074554 | 50 | 307 | 4.3 | 10.4 | 0.00 | 0.00 | 0.00 | 65 | 1012.1 |
| 20260508073053 | 50 | 313 | 5.2 | 10.4 | 0.00 | 0.00 | 0.00 | 62 | 1012.1 |
| 20260508071554 | 51 | 309 | 5.2 | 10.4 | 0.00 | 0.00 | 0.00 | 60 | 1012.1 |
| 20260508070054 | 52 | 314 | 6.1 | 10.4 | 0.00 | 0.00 | 0.00 | 57 | 1012.1 |
| 20260508064555 | 53 | 325 | 6.1 | 12.2 | 0.00 | 0.00 | 0.00 | 55 | 1011.9 |
| 20260508063057 | 53 | 328 | 7.8 | 12.2 | 0.00 | 0.00 | 0.00 | 54 | 1012.0 |
| 20260508061549 | 51 | 316 | 3.5 | 8.7 | 0.00 | 0.00 | 0.00 | 57 | 1012.0 |
| 20260508054636 | 51 | 294 | 4.3 | 8.7 | 0.00 | 0.00 | 0.00 | 60 | 1011.9 |
| 20260508053056 | 51 | 286 | 3.5 | 7.0 | 0.00 | 0.00 | 0.00 | 59 | 1011.6 |
| 20260508051554 | 52 | 285 | 5.2 | 7.8 | 0.00 | 0.00 | 0.00 | 58 | 1011.6 |
| 20260508050051 | 53 | 288 | 4.3 | 7.8 | 0.00 | 0.00 | 0.00 | 56 | 1011.8 |
| 20260508044553 | 52 | 285 | 4.3 | 7.0 | 0.00 | 0.00 | 0.00 | 59 | 1011.8 |
| 20260508043056 | 53 | 0 | 0.0 | 6.1 | 0.00 | 0.00 | 0.00 | 61 | 1011.8 |
| 20260508041552 | 54 | 0 | 1.7 | 5.2 | 0.00 | 0.00 | 0.00 | 59 | 1011.8 |
| 20260508040047 | 54 | 278 | 0.9 | 7.0 | 0.00 | 0.00 | 0.00 | 59 | 1011.9 |
| 20260508034552 | 54 | 0 | 0.0 | 5.2 | 0.00 | 0.00 | 0.00 | 59 | 1012.0 |
| 20260508033055 | 56 | 272 | 3.5 | 7.8 | 0.00 | 0.00 | 0.00 | 57 | 1012.0 |
| 20260508031559 | 56 | 279 | 4.3 | 7.8 | 0.00 | 0.00 | 0.00 | 55 | 1011.9 |
| 20260508030108 | 57 | 266 | 4.3 | 7.8 | 0.00 | 0.00 | 0.00 | 53 | 1011.8 |
| 20260508024604 | 58 | 266 | 5.2 | 11.3 | 0.00 | 0.00 | 0.00 | 52 | 1011.6 |
| 20260508023052 | 58 | 265 | 6.1 | 15.6 | 0.00 | 0.00 | 0.00 | 57 | 1011.2 |
| 20260508021556 | 61 | 255 | 7.0 | 9.6 | 0.00 | 0.00 | 0.00 | 45 | 1011.0 |
| 20260508020105 | 62 | 252 | 2.6 | 6.1 | 0.00 | 0.00 | 0.00 | 40 | 1010.9 |
| 20260508014552 | 63 | 0 | 0.0 | 4.3 | 0.00 | 0.00 | 0.00 | 39 | 1010.8 |
| 20260508013059 | 64 | 246 | 2.6 | 7.0 | 0.00 | 0.00 | 0.00 | 38 | 1010.7 |
| 20260508011552 | 65 | 244 | 4.3 | 11.3 | 0.00 | 0.00 | 0.00 | 38 | 1010.7 |
| 20260508010052 | 64 | 248 | 4.3 | 10.4 | 0.00 | 0.00 | 0.00 | 41 | 1010.8 |
| 20260508004549 | 64 | 244 | 2.6 | 13.0 | 0.00 | 0.00 | 0.00 | 42 | 1010.8 |
| 20260508003051 | 65 | 252 | 5.2 | 10.4 | 0.00 | 0.00 | 0.00 | 39 | 1011.0 |
| 20260508001551 | 66 | 246 | 7.0 | 13.0 | 0.00 | 0.00 | 0.00 | 38 | 1010.9 |
| 20260508000051 | 65 | 240 | 11.3 | 19.1 | 0.00 | 0.00 | 0.00 | 43 | 1010.8 |
| 20260507234551 | 65 | 271 | 14.8 | 21.7 | 0.00 | 0.00 | 0.00 | 41 | 1010.6 |
| 20260507233050 | 65 | 264 | 10.4 | 18.2 | 0.00 | 0.00 | 0.00 | 40 | 1010.5 |
| 20260507231555 | 67 | 0 | 5.2 | 13.0 | 0.00 | 0.00 | 0.00 | 29 | 1010.5 |
| 20260507230050 | 68 | 323 | 7.0 | 15.6 | 0.00 | 0.00 | 0.00 | 29 | 1010.4 |
| 20260507224556 | 68 | 352 | 5.2 | 13.0 | 0.00 | 0.00 | 0.00 | 29 | 1010.6 |
| 20260507223054 | 67 | 346 | 7.0 | 14.8 | 0.00 | 0.00 | 0.00 | 30 | 1010.7 |
| 20260507221556 | 68 | 280 | 7.8 | 13.0 | 0.00 | 0.00 | 0.00 | 30 | 1010.6 |
| 20260507220058 | 68 | 269 | 3.5 | 8.7 | 0.00 | 0.00 | 0.00 | 30 | 1010.7 |
| 20260507214558 | 68 | 336 | 2.6 | 14.8 | 0.00 | 0.00 | 0.00 | 30 | 1011.0 |
| 20260507213100 | 68 | 333 | 11.3 | 18.2 | 0.00 | 0.00 | 0.00 | 30 | 1011.1 |
| 20260507211556 | 68 | 338 | 5.2 | 14.8 | 0.00 | 0.00 | 0.00 | 30 | 1011.1 |
| 20260507204552 | 67 | 310 | 7.8 | 17.4 | 0.00 | 0.00 | 0.00 | 30 | 1011.2 |
| 20260507203100 | 68 | 252 | 5.2 | 15.6 | 0.00 | 0.00 | 0.00 | 29 | 1011.2 |
| 20260507201552 | 67 | 323 | 8.7 | 16.5 | 0.00 | 0.00 | 0.00 | 30 | 1011.2 |